STARLINK-30549, 58030

Orbit data source: Space-Track

STARLINK-30549, 58030 is a payload satellite owned by SpaceX/Seattle (US) in LEO that was launched on Mon, 09 Oct 2023 UTC via an FALCON 9 launch vehicle from the Air Force Western Test Range (AFWTR). Payload-class satellites include a variety of spacecraft equipped with specific instruments for various scientific and technological missions. These include communications satellites like Starlink; space stations such as the ISS; scientific satellites like the Hubble; Earth observation satellites from companies like Planet Labs, Umbra, and HawkEye 360; GPS; miniature CubeSats for education and research; and military/defense satellites.

Loading next visibility...
Identifier
58030, 2023-156C
Orbit
LEO
Country
Flag of USUS
Related business
Manufacturer
SpaceX/Seattle
Mission
Operational Commercial Communications
Bus & Motor
STARLINK V2M, Unknown motor
Mass
730 kg wet, ~700 kg dry
Launch date (UTC)
2023-10-09 (2 years ago)
Launch vehicle
FALCON 9
Launch site
Air Force Western Test Range (AFWTR)
Object type
Payload
Rocket body
Debris
Shape & HBR
Box + 2 Pan, 17.7 m
Radar Cross Section
33.884 m², Large (>1 m²)

Expand to show TLE details & history
Last TLE update: 1 day ago

TLE from 1 day ago
0 STARLINK-30549
1 58030U 23156C   25348.58620912 -.00003979  00000-0 -12237-3 0  9996
2 58030  53.1596 113.6802 0001034 125.7243 234.3854 15.30176393123238
Epoch: 2025-12-14T14:04Z
TLE epoch observation values (Epoch: 2025-12-14T14:04:08.467Z)
Latitude
-0.00005°
Longitude
179.14788°
Altitude
476.598 km
Speed
7.628 km/s
True Right ascension
07h 34m 43s
True Declination
0° 00' 00"
Sunlit
Object was in full shadow at epoch
Visualization orbit readout
Latitude
Unknown
Longitude
Unknown
Altitude
Unknown
Speed
Unknown
Apparent Right ascension
Unknown
Apparent Declination
Unknown
Sunlit
N/A
Visualization observer readout
Local Sidereal Time
13:25:42
Azimuth
Unknown
Elevation
Unknown
Doppler factor
Unknown
Orbital elements
Apogee altitude
476.251 km
Perigee altitude
474.833 km
Semi-major axis
6,853.679 km
Eccentricity
0.0001
Inclination
53.1596°
RAAN
113.6802°
Arg. of periapsis
125.7243°
True anomaly
234.37577°
Mean anomaly
234.3854°
Eccentric anomaly
234.38058°
Mean motion
3.82523 °/min
Orbital period
94.11 mins
BSTAR
-0.00012237
Loading maneuver chart data...
Computing Atmospheric mass density...
Loading historical data...
Loading historical data...
Loading historical data...
Loading historical data...
Loading historical data...
Loading historical data...
Loading historical data...

Documentation

Showing up to 5 results
|